[[{"header":{"parameterUnit":"m.s-1","parameterCategory":1,"la1":30.2991,"la2":30.254,"lo1":-89.0895,"lo2":-89.0444,"dy":0.0017,"dx":0.0017,"nx":28,"ny":28,"refTime":"2023-09-25T09:00:00:Z","depth":0,"parameterNumber":2,"parameterNumberName":"U-component_of_WINDS"},"data":[0,0,0,0,0,0,0,0,0,0,0,0,0,0,0,0,0,0,0,0,0,0,0,0,0,0,0,0,0,0,0,0,0,0,0,0,0,0,0,0,0,0,0,0,0,0,0,0,0,0,0,0,0,0,0,0,0,0,-3.1404,-3.1403,0,-3.1352,-3.1352,-3.1351,-3.1285,-3.1284,-3.1283,-3.1282,-3.1227,-3.1227,-3.1226,0,0,0,0,0,0,0,0,0,0,0,0,0,-3.1445,-3.1445,-3.1404,-3.1403,-3.1403,-3.1352,-3.1352,-3.1351,-3.1285,-3.1284,-3.1282,-3.1281,-3.1227,-3.1227,-3.1226,0,0,0,0,0,0,0,0,0,0,0,0,0,-3.1414,-3.1444,-3.1404,-3.1364,-3.136,-3.1353,-3.1352,-3.1351,-3.1285,-3.1284,-3.1282,-3.1281,-3.1228,-3.1227,-3.1226,-3.1254,0,0,-3.1224,-3.1224,0,0,0,0,0,0,0,0,-3.1416,-3.1412,-3.137,-3.1366,-3.1362,-3.1323,-3.1346,-3.1318,-3.1286,-3.1313,-3.1282,-3.128,-3.126,-3.1257,-3.1251,-3.1252,-3.1249,-3.1224,-3.1224,-3.1223,-3.1223,0,0,0,0,0,0,0,-3.1418,-3.1414,-3.1383,-3.137,-3.1365,-3.1348,-3.1342,-3.1341,-3.1297,-3.1311,-3.1306,-3.1301,-3.1258,-3.1252,-3.1249,-3.1249,-3.1224,-3.1224,-3.1223,-3.1223,-3.127,-3.1271,0,0,0,0,0,0,-3.1426,-3.1416,-3.1385,-3.1382,-3.1385,-3.1349,-3.1342,-3.1337,-3.1296,-3.1289,-3.1302,-3.1298,-3.1254,-3.125,-3.1247,-3.1276,-3.1223,-3.1223,-3.1222,-3.1268,-3.127,-3.1272,0,0,0,0,0,0,-3.1427,-3.1424,-3.1387,-3.1398,-3.1392,-3.135,-3.1345,-3.1337,-3.1331,-3.129,-3.1282,-3.1304,-3.1252,-3.1248,-3.1253,-3.1273,-3.1223,-3.1222,-3.1266,-3.1268,-3.1271,-3.1335,0,0,0,0,0,0,-3.1429,-3.1425,-3.1435,-3.1399,-3.1392,-3.1394,-3.1347,-3.1337,-3.133,-3.1324,-3.1289,-3.1282,-3.125,-3.1254,-3.1252,-3.1271,-3.1221,-3.1264,-3.1267,-3.127,-3.1331,-3.1339,-3.1346,0,0,0,0,0,-3.143,-3.1455,-3.1436,-3.1432,-3.1403,-3.1396,-3.1392,-3.1355,-3.1332,-3.1341,-3.1316,-3.1283,-3.1272,-3.1255,-3.1252,-3.1272,-3.1262,-3.1266,-3.127,-3.1327,-3.1337,-3.1346,0,0,0,0,0,0,-3.1494,-3.1449,-3.1427,-3.1441,-3.1423,-3.1384,-3.1395,-3.1368,-3.1355,-3.135,-3.1305,-3.1298,-3.1308,-3.1291,-3.1273,-3.1296,-3.1262,-3.1266,-3.1307,-3.1316,-3.1324,-3.1327,-3.1221,0,0,0,0,0,-3.1509,-3.1507,-3.1468,-3.1484,-3.1476,-3.1438,-3.1433,-3.1407,-3.1386,-3.1378,-3.1352,-3.1332,-3.1324,-3.132,-3.131,-3.1329,-3.132,-3.1341,-3.1349,-3.1355,-3.1358,-3.1366,-3.1374,-3.1284,-3.1284,-3.1284,0,0,-3.1541,-3.1517,-3.1518,-3.1496,-3.1479,-3.1477,-3.1431,-3.1431,-3.1429,-3.1377,-3.138,-3.1361,-3.1337,-3.1349,-3.1352,-3.1334,-3.1381,-3.136,-3.1366,-3.1364,-3.137,-3.1379,-3.1386,-3.1286,-3.1286,-3.1285,0,0,-3.1598,-3.158,-3.159,-3.1574,-3.1549,-3.1524,-3.1527,-3.1493,-3.1479,-3.1481,-3.1442,-3.144,-3.1427,-3.1411,-3.1401,-3.1454,-3.1423,-3.1453,-3.1492,-3.1501,-3.1508,-3.1514,-3.1531,-3.1538,-3.1456,-3.1456,-3.1456,0,-3.164,-3.1636,-3.1599,-3.1601,-3.1593,-3.1547,-3.1557,-3.1544,-3.1517,-3.1512,-3.1492,-3.1476,-3.1456,-3.1463,-3.1476,-3.1471,-3.1472,-3.1455,-3.151,-3.1516,-3.1521,-3.1537,-3.1543,-3.1459,-3.1459,-3.1459,-3.1458,0,-3.1689,-3.1687,-3.1698,-3.1674,-3.1667,-3.1673,-3.1637,-3.1635,-3.161,-3.1587,-3.159,-3.1566,-3.155,-3.1551,-3.1526,-3.1555,-3.1544,-3.1518,-3.1482,-3.1533,-3.1547,-3.1553,-3.1465,-3.1463,-3.1462,-3.1461,0,0,-3.1781,-3.1737,-3.1742,-3.173,-3.17,-3.1698,-3.1703,-3.1688,-3.1686,-3.167,-3.1672,-3.1664,-3.164,-3.1629,-3.1603,-3.1611,-3.1653,-3.1583,-3.1582,-3.1595,-3.1681,-3.1699,-3.1706,-3.1634,-3.1635,-3.1635,-3.1682,0,-3.183,-3.1835,-3.1803,-3.1816,-3.1813,-3.1771,-3.1776,-3.1758,-3.1737,-3.1732,-3.1709,-3.1702,-3.1672,-3.1665,-3.1671,-3.1646,-3.1669,-3.1643,-3.1633,-3.1634,-3.1638,-3.1714,-3.1733,-3.1778,-3.1688,-3.1689,-3.1689,0,-3.1887,-3.1874,-3.1888,-3.1858,-3.1855,-3.1859,-3.1844,-3.184,-3.1819,-3.1803,-3.1792,-3.1763,-3.1765,-3.1734,-3.1736,-3.1719,-3.1714,-3.1701,-3.1702,-3.1698,-3.1663,-3.1709,-3.1791,-3.1797,-3.1698,-3.1697,-3.1697,0,-3.195,-3.1937,-3.1943,-3.1935,-3.19,-3.1904,-3.189,-3.1867,-3.1861,-3.1848,-3.1843,-3.1831,-3.1823,-3.1814,-3.1782,-3.1762,-3.1787,-3.1753,-3.1773,-3.1774,-3.1778,-3.1778,-3.1858,-3.1779,-3.1779,-3.1779,-3.1779,0,-3.2007,-3.2016,-3.1971,-3.1975,-3.1984,-3.1948,-3.1958,-3.194,-3.1921,-3.192,-3.1884,-3.1883,-3.1842,-3.1838,-3.1813,-3.1818,-3.1815,-3.1802,-3.1795,-3.1804,-3.1805,-3.1798,-3.1793,-3.1781,-3.178,-3.178,-3.178,0,-3.2078,-3.2048,-3.2052,-3.2019,-3.2012,-3.202,-3.1992,-3.1994,-3.1972,-3.1971,-3.1969,-3.1934,-3.1927,-3.1895,-3.188,-3.1864,-3.1876,-3.1864,-3.1883,-3.1878,-3.1899,-3.1897,-3.1975,-3.1983,-3.1902,-3.1903,-3.1903,0,-3.2114,-3.2121,-3.209,-3.2087,-3.2074,-3.207,-3.2063,-3.2029,-3.2023,-3.2001,-3.2006,-3.1996,-3.1986,-3.1976,-3.1949,-3.1938,-3.1923,-3.1952,-3.1921,-3.193,-3.1921,-3.192,-3.192,-3.1957,-3.1958,-3.1959,-3.196,0,-3.2182,-3.2168,-3.216,-3.2147,-3.2141,-3.2129,-3.2115,-3.2115,-3.2077,-3.2073,-3.2065,-3.2058,-3.2043,-3.2033,-3.2018,-3.2003,-3.1975,-3.1971,-3.1974,-3.1982,-3.1992,-3.1985,-3.1898,-3.1968,-3.1967,-3.1967,-3.1966,-3.1966,-3.2236,-3.2239,-3.2218,-3.221,-3.2197,-3.2185,-3.2185,-3.2164,-3.2157,-3.2143,-3.2123,-3.2118,-3.2098,-3.2074,-3.2062,-3.2057,-3.2041,-3.2047,-3.2048,-3.2049,-3.2053,-3.1996,-3.2054,-3.2054,-3.2054,-3.2054,-3.2053,0,-3.23,-3.2285,-3.2278,-3.2261,-3.2255,-3.2231,-3.2215,-3.2212,-3.2208,-3.2192,-3.2183,-3.2175,-3.2166,-3.2139,-3.2127,-3.2129,-3.2115,-3.2126,-3.2125,-3.2121,-3.2069,-3.2066,-3.2137,-3.2137,-3.2137,-3.2137,-3.2137,-3.2137,-3.2332,-3.2337,-3.232,-3.2318,-3.2302,-3.2297,-3.229,-3.2279,-3.2266,-3.2258,-3.2251,-3.2234,-3.2214,-3.22,-3.2191,-3.2183,-3.218,-3.2195,-3.2183,-3.2133,-3.2125,-3.2117,-3.2114,-3.2195,-3.2195,-3.2235,-3.2236,-3.2236]},{"header":{"parameterUnit":"m.s-1","parameterCategory":1,"la1":30.2991,"la2":30.254,"lo1":-89.0895,"lo2":-89.0444,"dy":0.0017,"dx":0.0017,"nx":28,"ny":28,"refTime":"2023-09-25T09:00:00:Z","depth":0,"parameterNumber":3,"parameterNumberName":"V-component_of_WINDS"},"data":[0,0,0,0,0,0,0,0,0,0,0,0,0,0,0,0,0,0,0,0,0,0,0,0,0,0,0,0,0,0,0,0,0,0,0,0,0,0,0,0,0,0,0,0,0,0,0,0,0,0,0,0,0,0,0,0,0,0,0.6181,0.6181,0,0.6206,0.6207,0.6207,0.6191,0.6191,0.619,0.6189,0.6215,0.6216,0.6218,0,0,0,0,0,0,0,0,0,0,0,0,0,0.6118,0.612,0.618,0.6181,0.6181,0.6206,0.6207,0.6207,0.6192,0.6191,0.619,0.6189,0.6214,0.6216,0.6218,0,0,0,0,0,0,0,0,0,0,0,0,0,0.6145,0.612,0.618,0.6176,0.6176,0.6206,0.6207,0.6207,0.6192,0.6191,0.619,0.6188,0.6214,0.6216,0.6218,0.6253,0,0,0.6224,0.6225,0,0,0,0,0,0,0,0,0.6143,0.6147,0.6177,0.6177,0.6177,0.6195,0.6194,0.6222,0.6192,0.6186,0.6189,0.6188,0.6209,0.6211,0.6219,0.6254,0.6255,0.6224,0.6226,0.6226,0.6227,0,0,0,0,0,0,0,0.6142,0.6146,0.6191,0.6177,0.6177,0.6174,0.6176,0.6199,0.6203,0.6186,0.6185,0.6189,0.6209,0.6217,0.6219,0.6255,0.6224,0.6226,0.6227,0.6228,0.6324,0.6325,0,0,0,0,0,0,0.614,0.6145,0.619,0.6191,0.6157,0.6176,0.6179,0.619,0.6203,0.6204,0.619,0.6188,0.6214,0.6217,0.622,0.6264,0.6226,0.6228,0.623,0.6323,0.6324,0.6326,0,0,0,0,0,0,0.6139,0.6144,0.6189,0.6168,0.6173,0.6178,0.6191,0.6191,0.6199,0.6205,0.6206,0.6197,0.6213,0.6217,0.6246,0.6265,0.6229,0.6231,0.6321,0.6323,0.6325,0.6351,0,0,0,0,0,0,0.6137,0.6144,0.6157,0.6168,0.6174,0.6214,0.6192,0.6192,0.6203,0.6201,0.6213,0.6213,0.6212,0.6243,0.6248,0.6267,0.6233,0.6319,0.6322,0.6324,0.6348,0.6354,0.6358,0,0,0,0,0,0.6135,0.6162,0.6158,0.6163,0.6191,0.6215,0.6218,0.6217,0.6204,0.6218,0.6222,0.6213,0.6261,0.6246,0.6251,0.6271,0.6318,0.6321,0.6324,0.6346,0.6353,0.6358,0,0,0,0,0,0,0.6152,0.6164,0.6159,0.619,0.6202,0.6212,0.6229,0.6223,0.6238,0.6236,0.6233,0.6236,0.6266,0.6271,0.6253,0.6307,0.6288,0.6292,0.6303,0.6309,0.6314,0.6312,0.6235,0,0,0,0,0,0.616,0.6179,0.6187,0.6215,0.6221,0.6224,0.6235,0.6233,0.6244,0.6249,0.6255,0.6267,0.6285,0.6297,0.6314,0.6349,0.6352,0.6365,0.637,0.6374,0.6378,0.64,0.6406,0.6335,0.6335,0.6335,0,0,0.6176,0.6184,0.6196,0.6219,0.6227,0.6248,0.6228,0.625,0.6265,0.6252,0.628,0.6285,0.6298,0.6331,0.6346,0.6336,0.6399,0.6378,0.6381,0.6383,0.6404,0.641,0.6416,0.6337,0.6337,0.6337,0,0,0.6216,0.6223,0.6248,0.6258,0.6272,0.6274,0.628,0.6291,0.6295,0.6323,0.6315,0.6332,0.6363,0.6373,0.6383,0.6429,0.6421,0.6434,0.6459,0.648,0.6486,0.6491,0.651,0.6516,0.6438,0.6438,0.6438,0,0.6234,0.6264,0.6262,0.6285,0.6296,0.6286,0.6312,0.6321,0.6339,0.6347,0.6336,0.6376,0.6384,0.642,0.6432,0.6439,0.6447,0.6433,0.6485,0.649,0.6495,0.6513,0.652,0.6439,0.6439,0.6439,0.6439,0,0.6287,0.6308,0.6326,0.6346,0.6358,0.6383,0.6385,0.6398,0.6395,0.6399,0.6429,0.6438,0.6458,0.6466,0.6463,0.6503,0.6497,0.6486,0.6466,0.6504,0.652,0.6527,0.6442,0.6441,0.6441,0.644,0,0,0.6338,0.6357,0.6364,0.6374,0.6389,0.6406,0.643,0.645,0.6463,0.6476,0.6498,0.6524,0.6515,0.6526,0.6524,0.6542,0.6581,0.6529,0.6529,0.654,0.6628,0.6638,0.6646,0.6576,0.6577,0.6578,0.6628,0,0.6381,0.6424,0.6424,0.6464,0.6485,0.6476,0.6498,0.651,0.6514,0.6533,0.6537,0.6558,0.6542,0.6549,0.6567,0.6572,0.6599,0.6568,0.6597,0.6598,0.6596,0.6654,0.6664,0.6711,0.6634,0.6635,0.6636,0,0.6436,0.6453,0.6496,0.651,0.6519,0.6538,0.6558,0.6575,0.6589,0.6591,0.6604,0.66,0.6626,0.6605,0.6642,0.6621,0.6633,0.6638,0.664,0.6644,0.6621,0.6662,0.6726,0.6734,0.6646,0.6645,0.6644,0,0.6473,0.6505,0.6536,0.6544,0.6561,0.6576,0.6583,0.6596,0.6609,0.6626,0.6635,0.6654,0.6665,0.6681,0.6682,0.6666,0.672,0.6699,0.6724,0.6724,0.6737,0.6736,0.6805,0.6741,0.6741,0.6741,0.674,0,0.6521,0.6549,0.6553,0.6572,0.6603,0.6602,0.6633,0.6639,0.6651,0.6672,0.6665,0.6685,0.6685,0.6705,0.6706,0.6738,0.6742,0.6745,0.6746,0.6747,0.6747,0.6756,0.6754,0.6742,0.6742,0.6742,0.6741,0,0.6568,0.6572,0.6605,0.6619,0.6623,0.6646,0.6658,0.6676,0.668,0.6707,0.6713,0.672,0.6743,0.6746,0.6773,0.6774,0.6813,0.6809,0.6809,0.6809,0.6835,0.6834,0.6914,0.6926,0.6851,0.6852,0.6852,0,0.66,0.6621,0.6638,0.6652,0.6661,0.6682,0.6696,0.6696,0.6711,0.673,0.6747,0.677,0.6789,0.6827,0.6835,0.6856,0.6854,0.688,0.6857,0.6859,0.6857,0.6857,0.686,0.6885,0.6886,0.6887,0.6887,0,0.6657,0.6659,0.6679,0.67,0.6717,0.6733,0.6749,0.6761,0.6763,0.678,0.6805,0.682,0.6848,0.6872,0.6894,0.6902,0.6896,0.6895,0.6902,0.6905,0.6905,0.6908,0.6824,0.6893,0.6893,0.6892,0.6892,0.6892,0.6699,0.6719,0.6734,0.6757,0.6769,0.6785,0.6804,0.6811,0.6832,0.6856,0.6855,0.6883,0.6898,0.6926,0.6936,0.6958,0.695,0.696,0.6963,0.6966,0.697,0.69,0.6962,0.6962,0.6962,0.6961,0.6961,0,0.6758,0.6768,0.679,0.6813,0.6832,0.6824,0.6841,0.6858,0.6883,0.6897,0.6917,0.6946,0.697,0.6979,0.7003,0.7019,0.7017,0.7025,0.7025,0.7028,0.6975,0.6967,0.7027,0.7027,0.7027,0.7027,0.7027,0.7027,0.6792,0.6825,0.6829,0.6868,0.6878,0.6906,0.6917,0.6931,0.6944,0.6977,0.6997,0.7003,0.7017,0.7041,0.7063,0.7065,0.7075,0.7086,0.7087,0.7038,0.7031,0.7025,0.7018,0.7087,0.7087,0.7138,0.7139,0.7139]}]]